User: anonymous   Login
Location: Knowlton
(51.2333°N, 1.2667°E)
Time: 13:14:21
(UTC+00:00)
Language:

Aureole 1 Rocket - Orbit

View from above orbital plane
View from above orbital plane
View from above satellite
View from above satellite

Ground track
Ground track

The orbit data is extracted from the following two-line orbital elements,

1 05730U 71119B   21173.85411386  .00003030  00000-0  19306-3 0  9992
2 05730  73.8939  58.3403 0684907  10.6919 350.7958 14.05440506411461
Epoch (UTC): 22 June 2021 20:29:55
Eccentricity: 0.0684907
inclination: 73.8939°
perigee height: 378 km
apogee height: 1372 km
right ascension of ascending node: 58.3403°
argument of perigee: 10.6919°
revolutions per day: 14.05440506
mean anomaly at epoch: 350.7958°
orbit number at epoch: 41146

The dashed part of the orbit path shows where the satellite is in the earth's shadow,  

DLR